Time,TemperatureF,DewpointF,PressureIn,WindDirection,WindDirectionDegrees,WindSpeedMPH,WindSpeedGustMPH,Humidity,HourlyPrecipIn,Conditions,Clouds,dailyrainin,SoftwareType,DateUTC
2013-02-15 10:59:00,52.2,45.9,30.12,North,5,0.0,0.0,79,0.00,,,0.00,Wunderground v.1.15,2013-02-15 15:59:00,
2013-02-15 11:05:00,53.3,46.3,30.11,North,5,0.0,0.0,77,0.00,,,0.00,Wunderground v.1.15,2013-02-15 16:05:00,
2013-02-15 11:10:00,54.4,45.6,30.11,North,5,0.0,0.0,72,0.00,,,0.00,Wunderground v.1.15,2013-02-15 16:10:00,
2013-02-15 11:19:00,55.7,45.7,30.11,North,5,0.0,0.0,69,0.00,,,0.00,Wunderground v.1.15,2013-02-15 16:19:00,
2013-02-15 11:29:00,57.2,45.9,30.11,North,5,0.0,2.0,66,0.00,,,0.00,Wunderground v.1.15,2013-02-15 16:29:00,
2013-02-15 11:35:00,57.6,44.7,30.10,NNE,30,0.0,2.0,62,0.00,,,0.00,Wunderground v.1.15,2013-02-15 16:35:00,
2013-02-15 11:40:00,57.5,43.7,30.10,North,355,0.0,0.0,60,0.00,,,0.00,Wunderground v.1.15,2013-02-15 16:40:00,
2013-02-15 11:50:00,60.0,46.1,30.09,North,355,0.0,0.0,60,0.00,,,0.00,Wunderground v.1.15,2013-02-15 16:50:00,
2013-02-15 11:59:00,62.1,46.2,30.09,North,360,0.0,0.0,56,0.00,,,0.00,Wunderground v.1.15,2013-02-15 16:59:00,
2013-02-15 12:09:00,64.0,46.0,30.08,NNE,22,0.0,0.0,52,0.00,,,0.00,Wunderground v.1.15,2013-02-15 17:09:00,
2013-02-15 12:15:00,64.5,45.4,30.08,East,95,0.0,0.0,50,0.00,,,0.00,Wunderground v.1.15,2013-02-15 17:15:00,
2013-02-15 12:20:00,64.8,47.8,30.08,East,95,0.0,0.0,54,0.00,,,0.00,Wunderground v.1.15,2013-02-15 17:20:00,
2013-02-15 12:30:00,65.2,45.5,30.08,East,96,0.0,0.0,49,0.00,,,0.00,Wunderground v.1.15,2013-02-15 17:30:00,
2013-02-15 12:39:00,64.6,45.0,30.07,North,360,0.0,0.0,49,0.00,,,0.00,Wunderground v.1.15,2013-02-15 17:39:00,
2013-02-15 12:45:00,64.5,45.4,30.07,North,360,0.0,0.0,50,0.00,,,0.00,Wunderground v.1.15,2013-02-15 17:45:00,
2013-02-15 12:50:00,64.9,45.3,30.06,North,360,0.0,0.0,49,0.00,,,0.00,Wunderground v.1.15,2013-02-15 17:50:00,
2013-02-15 13:00:00,65.0,43.7,30.06,SE,124,0.0,0.0,46,0.00,,,0.00,Wunderground v.1.15,2013-02-15 18:00:00,
2013-02-15 13:09:00,64.7,42.9,30.06,South,169,1.0,2.0,45,0.00,,,0.00,Wunderground v.1.15,2013-02-15 18:09:00,
2013-02-15 13:19:00,63.2,42.6,30.05,SSE,164,1.0,1.0,47,0.00,,,0.00,Wunderground v.1.15,2013-02-15 18:19:00,
2013-02-15 13:25:00,63.4,41.1,30.05,SSE,164,1.0,1.0,44,0.00,,,0.00,Wunderground v.1.15,2013-02-15 18:25:00,
2013-02-15 13:30:00,63.5,42.3,30.05,South,170,0.0,0.0,46,0.00,,,0.00,Wunderground v.1.15,2013-02-15 18:30:00,
2013-02-15 13:39:00,62.7,41.6,30.05,SSE,160,1.0,3.0,46,0.00,,,0.00,Wunderground v.1.15,2013-02-15 18:39:00,
2013-02-15 13:49:00,62.7,41.6,30.03,SSE,166,1.0,1.0,46,0.00,,,0.00,Wunderground v.1.15,2013-02-15 18:49:00,
2013-02-15 13:55:00,63.2,42.1,30.03,SSE,166,0.0,1.0,46,0.00,,,0.00,Wunderground v.1.15,2013-02-15 18:55:00,
2013-02-15 14:00:00,63.9,43.8,30.03,WSW,257,0.0,1.0,48,0.00,,,0.00,Wunderground v.1.15,2013-02-15 19:00:00,
2013-02-15 14:09:00,64.0,44.4,30.03,NNW,340,1.0,1.0,49,0.00,,,0.00,Wunderground v.1.15,2013-02-15 19:09:00,
2013-02-15 14:19:00,64.8,43.5,30.02,North,349,0.0,0.0,46,0.00,,,0.00,Wunderground v.1.15,2013-02-15 19:19:00,
2013-02-15 14:29:00,65.2,42.7,30.02,WNW,286,0.0,0.0,44,0.00,,,0.00,Wunderground v.1.15,2013-02-15 19:29:00,
2013-02-15 14:34:00,64.9,42.5,30.01,WNW,291,0.0,0.0,44,0.00,,,0.00,Wunderground v.1.15,2013-02-15 19:34:00,
2013-02-15 14:39:00,64.7,42.3,30.01,SSE,167,0.0,0.0,44,0.00,,,0.00,Wunderground v.1.15,2013-02-15 19:39:00,
2013-02-15 14:49:00,64.0,43.9,30.01,North,355,0.0,0.0,48,0.00,,,0.00,Wunderground v.1.15,2013-02-15 19:49:00,
2013-02-15 14:59:00,62.7,42.7,30.01,South,169,0.0,1.0,48,0.00,,,0.00,Wunderground v.1.15,2013-02-15 19:59:00,
2013-02-15 15:05:00,62.1,42.2,30.01,SSE,167,0.0,1.0,48,0.00,,,0.00,Wunderground v.1.15,2013-02-15 20:05:00,
2013-02-15 15:14:00,61.1,43.8,30.01,SSE,167,0.0,0.0,53,0.00,,,0.00,Wunderground v.1.15,2013-02-15 20:14:00,
2013-02-15 15:19:00,60.7,43.0,30.00,SSE,167,0.0,0.0,52,0.00,,,0.00,Wunderground v.1.15,2013-02-15 20:19:00,
2013-02-15 15:29:00,59.5,40.8,30.00,North,351,0.0,0.0,50,0.00,,,0.00,Wunderground v.1.15,2013-02-15 20:29:00,
2013-02-15 15:35:00,59.0,42.4,30.00,North,350,0.0,0.0,54,0.00,,,0.00,Wunderground v.1.15,2013-02-15 20:35:00,
2013-02-15 15:40:00,59.0,41.9,30.00,NNE,26,0.0,1.0,53,0.00,,,0.00,Wunderground v.1.15,2013-02-15 20:40:00,
2013-02-15 15:49:00,58.4,41.8,30.00,NNE,14,0.0,0.0,54,0.00,,,0.00,Wunderground v.1.15,2013-02-15 20:49:00,
2013-02-15 15:59:00,58.1,42.0,30.00,NNE,14,0.0,0.0,55,0.00,,,0.00,Wunderground v.1.15,2013-02-15 20:59:00,
2013-02-15 16:05:00,58.1,40.1,30.00,NNW,338,0.0,4.0,51,0.00,,,0.00,Wunderground v.1.15,2013-02-15 21:05:00,
2013-02-15 16:10:00,58.3,41.7,30.00,East,94,0.0,0.0,54,0.00,,,0.00,Wunderground v.1.15,2013-02-15 21:10:00,
2013-02-15 16:19:00,58.7,39.0,29.99,SSE,168,1.0,1.0,48,0.00,,,0.00,Wunderground v.1.15,2013-02-15 21:19:00,
2013-02-15 16:29:00,58.7,40.1,29.99,SSE,167,1.0,1.0,50,0.00,,,0.00,Wunderground v.1.15,2013-02-15 21:29:00,
2013-02-15 16:35:00,58.5,39.9,30.00,NNE,13,0.0,1.0,50,0.00,,,0.00,Wunderground v.1.15,2013-02-15 21:35:00,
2013-02-15 16:40:00,58.3,40.7,30.00,NNE,13,0.0,0.0,52,0.00,,,0.00,Wunderground v.1.15,2013-02-15 21:40:00,
2013-02-15 16:50:00,58.1,39.5,30.00,North,5,0.0,0.0,50,0.00,,,0.00,Wunderground v.1.15,2013-02-15 21:50:00,
2013-02-15 16:59:00,58.0,39.5,30.00,North,355,0.0,0.0,50,0.00,,,0.00,Wunderground v.1.15,2013-02-15 21:59:00,
2013-02-15 17:09:00,58.0,41.0,30.00,North,355,0.0,0.0,53,0.00,,,0.00,Wunderground v.1.15,2013-02-15 22:09:00,
2013-02-15 17:14:00,58.1,39.5,30.00,SSE,152,0.0,0.0,50,0.00,,,0.00,Wunderground v.1.15,2013-02-15 22:14:00,
2013-02-15 17:19:00,58.1,40.6,30.00,SSE,152,0.0,0.0,52,0.00,,,0.00,Wunderground v.1.15,2013-02-15 22:19:00,
2013-02-15 17:29:00,57.6,39.6,30.00,ESE,122,0.0,0.0,51,0.00,,,0.00,Wunderground v.1.15,2013-02-15 22:29:00,
2013-02-15 17:35:00,57.2,39.7,30.00,ESE,121,0.0,0.0,52,0.00,,,0.00,Wunderground v.1.15,2013-02-15 22:35:00,
2013-02-15 17:45:00,56.6,41.1,30.00,ESE,115,0.0,0.0,56,0.00,,,0.00,Wunderground v.1.15,2013-02-15 22:45:00,
2013-02-15 17:54:00,56.0,40.5,30.00,ESE,116,0.0,0.0,56,0.00,,,0.00,Wunderground v.1.15,2013-02-15 22:54:00,
2013-02-15 17:59:00,55.8,39.9,30.00,ESE,115,0.0,0.0,55,0.00,,,0.00,Wunderground v.1.15,2013-02-15 22:59:00,
2013-02-15 18:09:00,55.2,40.7,30.01,ESE,115,0.0,0.0,58,0.00,,,0.00,Wunderground v.1.15,2013-02-15 23:09:00,
2013-02-15 18:19:00,54.7,40.6,30.01,ESE,116,0.0,0.0,59,0.00,,,0.00,Wunderground v.1.15,2013-02-15 23:19:00,
2013-02-15 18:25:00,54.6,40.6,30.01,North,10,0.0,0.0,59,0.00,,,0.00,Wunderground v.1.15,2013-02-15 23:25:00,
2013-02-15 18:34:00,53.8,43.5,30.02,North,5,3.0,6.0,68,0.00,,,0.00,Wunderground v.1.15,2013-02-15 23:34:00,
2013-02-15 18:39:00,53.1,44.7,30.02,North,5,2.0,2.0,73,0.00,,,0.00,Wunderground v.1.15,2013-02-15 23:39:00,
2013-02-15 18:49:00,51.5,45.2,30.03,NNW,335,1.0,2.0,79,0.00,,,0.00,Wunderground v.1.15,2013-02-15 23:49:00,
2013-02-15 18:55:00,50.8,45.2,30.03,NNW,337,1.0,2.0,81,0.00,,,0.00,Wunderground v.1.15,2013-02-15 23:55:00,
2013-02-15 19:00:00,50.3,44.7,30.03,NNW,340,1.0,1.0,81,0.00,,,0.00,Wunderground v.1.15,2013-02-16 00:00:00,
2013-02-15 19:09:00,49.7,44.7,30.03,NNW,343,1.0,1.0,83,0.00,,,0.00,Wunderground v.1.15,2013-02-16 00:09:00,
2013-02-15 19:19:00,49.2,45.5,30.03,North,350,1.0,1.0,87,0.00,,,0.00,Wunderground v.1.15,2013-02-16 00:19:00,
2013-02-15 19:25:00,48.8,45.7,30.03,North,350,1.0,1.0,89,0.00,,,0.00,Wunderground v.1.15,2013-02-16 00:25:00,
2013-02-15 19:30:00,48.4,45.6,30.03,North,350,0.0,0.0,90,0.00,,,0.00,Wunderground v.1.15,2013-02-16 00:30:00,
2013-02-15 19:39:00,47.6,45.1,30.03,North,350,0.0,0.0,91,0.00,,,0.00,Wunderground v.1.15,2013-02-16 00:39:00,
2013-02-15 19:49:00,47.0,44.8,30.04,North,350,0.0,0.0,92,0.00,,,0.00,Wunderground v.1.15,2013-02-16 00:49:00,
2013-02-15 19:55:00,46.7,44.8,30.04,North,350,0.0,0.0,93,0.00,,,0.00,Wunderground v.1.15,2013-02-16 00:55:00,
2013-02-15 20:00:00,46.4,44.5,30.04,North,351,0.0,0.0,93,0.00,,,0.00,Wunderground v.1.15,2013-02-16 01:00:00,
2013-02-15 20:10:00,46.0,44.4,30.05,North,355,0.0,0.0,94,0.00,,,0.00,Wunderground v.1.15,2013-02-16 01:10:00,
2013-02-15 20:19:00,45.6,43.4,30.05,North,349,0.0,0.0,92,0.00,,,0.00,Wunderground v.1.15,2013-02-16 01:19:00,
2013-02-15 20:29:00,45.4,42.9,30.05,NNW,333,0.0,0.0,91,0.00,,,0.00,Wunderground v.1.15,2013-02-16 01:29:00,
2013-02-15 20:35:00,45.3,42.2,30.06,NNW,338,0.0,0.0,89,0.00,,,0.00,Wunderground v.1.15,2013-02-16 01:35:00,
2013-02-15 20:40:00,45.2,42.2,30.06,NNW,346,0.0,1.0,89,0.00,,,0.00,Wunderground v.1.15,2013-02-16 01:40:00,
2013-02-15 20:49:00,45.0,41.7,30.06,NNW,338,1.0,1.0,88,0.00,,,0.00,Wunderground v.1.15,2013-02-16 01:49:00,
2013-02-15 20:59:00,44.7,41.1,30.06,NNW,338,0.0,0.0,87,0.00,,,0.00,Wunderground v.1.15,2013-02-16 01:59:00,
2013-02-15 21:10:00,44.4,41.1,30.06,NNW,337,0.0,0.0,88,0.00,,,0.00,Wunderground v.1.15,2013-02-16 02:10:00,
2013-02-15 21:15:00,44.2,40.9,30.06,NNW,337,0.0,0.0,88,0.00,,,0.00,Wunderground v.1.15,2013-02-16 02:15:00,
2013-02-15 21:24:00,43.9,41.7,30.06,NNW,337,0.0,0.0,92,0.00,,,0.00,Wunderground v.1.15,2013-02-16 02:24:00,
2013-02-15 21:29:00,43.7,40.1,30.06,NNW,345,0.0,0.0,87,0.00,,,0.00,Wunderground v.1.15,2013-02-16 02:29:00,
2013-02-15 21:39:00,43.4,39.8,30.06,NNW,345,0.0,0.0,87,0.00,,,0.00,Wunderground v.1.15,2013-02-16 02:39:00,
2013-02-15 21:45:00,43.2,39.9,30.06,NNW,345,0.0,0.0,88,0.00,,,0.00,Wunderground v.1.15,2013-02-16 02:45:00,
2013-02-15 21:54:00,42.9,39.6,30.06,NNW,346,0.0,0.0,88,0.00,,,0.00,Wunderground v.1.15,2013-02-16 02:54:00,
2013-02-15 21:59:00,42.7,39.4,30.06,NNW,345,0.0,0.0,88,0.00,,,0.00,Wunderground v.1.15,2013-02-16 02:59:00,
2013-02-15 22:09:00,42.4,39.1,30.06,NNW,345,0.0,0.0,88,0.00,,,0.00,Wunderground v.1.15,2013-02-16 03:09:00,
2013-02-15 22:15:00,42.3,39.0,30.06,NNW,346,0.0,0.0,88,0.00,,,0.00,Wunderground v.1.15,2013-02-16 03:15:00,
2013-02-15 22:24:00,42.0,38.4,30.05,NNW,345,0.0,0.0,87,0.00,,,0.00,Wunderground v.1.15,2013-02-16 03:24:00,
2013-02-15 22:34:00,42.1,38.2,30.04,NNW,346,0.0,0.0,86,0.00,,,0.00,Wunderground v.1.15,2013-02-16 03:34:00,
2013-02-15 22:39:00,42.2,38.3,30.04,NNW,344,0.0,1.0,86,0.00,,,0.00,Wunderground v.1.15,2013-02-16 03:39:00,
2013-02-15 22:49:00,42.3,38.7,30.05,NNW,345,0.0,0.0,87,0.00,,,0.00,Wunderground v.1.15,2013-02-16 03:49:00,
2013-02-15 22:55:00,42.2,38.3,30.05,NNW,346,0.0,0.0,86,0.00,,,0.00,Wunderground v.1.15,2013-02-16 03:55:00,
2013-02-15 23:00:00,42.2,38.3,30.05,NNW,345,0.0,0.0,86,0.00,,,0.00,Wunderground v.1.15,2013-02-16 04:00:00,
2013-02-15 23:09:00,42.3,38.7,30.04,NNW,346,0.0,0.0,87,0.00,,,0.00,Wunderground v.1.15,2013-02-16 04:09:00,
2013-02-15 23:19:00,42.3,38.7,30.02,NNW,348,0.0,1.0,87,0.00,,,0.00,Wunderground v.1.15,2013-02-16 04:19:00,
2013-02-15 23:25:00,42.3,38.4,30.02,NNW,340,0.0,1.0,86,0.00,,,0.00,Wunderground v.1.15,2013-02-16 04:25:00,
2013-02-15 23:30:00,42.3,38.4,30.02,NNW,340,0.0,0.0,86,0.00,,,0.00,Wunderground v.1.15,2013-02-16 04:30:00,
2013-02-15 23:39:00,42.1,38.2,30.02,North,351,0.0,0.0,86,0.00,,,0.00,Wunderground v.1.15,2013-02-16 04:39:00,
2013-02-15 23:49:00,41.8,37.9,30.01,North,355,0.0,0.0,86,0.00,,,0.00,Wunderground v.1.15,2013-02-16 04:49:00,
2013-02-15 23:55:00,41.8,37.9,30.01,NNW,332,0.0,0.0,86,0.00,,,0.00,Wunderground v.1.15,2013-02-16 04:55:00,